Location: Les Chemineaux
(47.3024°N, 1.5104°E)
Time: 21:47:08
(UTC+00:00)

CZ-2C R/B - Pass Details

Date: 19 May 2025
Orbit: 631 x 693 km, 98.1° (Epoch: 18 June)

Event Time Altitude Azimuth Distance (km) Brightness Sun altitude
Rises 23:14:11 0° 9° (N) 2,939 8.3 -22.2°
Reaches altitude 10° 23:16:26 10° 4° (N) 2,024 7.3 -22.3°
Maximum altitude 23:20:41 51° 290° (WNW) 803 4.2 -22.4°
Enters shadow 23:21:50 39° 243° (WSW) 947 4.3 -22.4°
